Location: Unspecified
(0.0000°N, 0.0000°E)
Time: 01:28:55
(UTC+00:00)

Vanguard 1 - Pass Details

Date: 28 November 2019
Orbit: 652 x 3832 km, 34.3° (Epoch: 10 December)

Event Time Altitude Azimuth Distance (km) Brightness Sun altitude
Rises 05:38:42 0° 247° (WSW) 7,869 14.2 -2.1°
Reaches altitude 10° 05:44:20 10° 251° (WSW) 6,928 13.9 -0.8°
Maximum altitude 06:06:24 50° 321° (NW) 3,939 12.9 4.3°
Drops below altitude 10° 06:21:54 10° 33° (NNE) 4,997 13.9 7.9°
Sets 06:25:15 0° 39° (NE) 5,634 14.2 8.7°
